This demonstration page uses our WeatherBlox Daily Observations layout. Learn more.

41.55636, -103.73856

Hourly Observations for October 4, 2019

Temp ( °F °C ) Dew Point ( °F °C ) Humidity (%) Winds ( mph kmh ) Pressure ( in mb ) Visibility ( mi km ) Precip ( " mm )
12:58 am 00:58 Clear 57 14.1 31 -0.6 37 37 SSE 13 20 30.17 1022 10 16.0934 0 0
1:58 am 01:58 Clear 56 13.1 32 0 41 41 SSE 21 33 30.16 1021 10 16.0934 0 0
2:58 am 02:58 Clear 53 11.6 32 0.2 46 46 SSE 21 33 30.14 1021 10 16.0934 0 0
3:58 am 03:58 Clear 51 10.8 32 0.1 48 48 SSE 15 24 30.12 1020 10 16.0934 0 0
4:58 am 04:58 Clear 51 10.4 33 0.6 51 51 SSE 21 33 30.1 1019 10 16.0934 0 0
5:58 am 05:58 Clear 48 9.1 34 1.3 58 58 SSE 21 33 30.07 1018 10 16.0934 0 0
6:58 am 06:58 Clear 47 8.3 35 1.4 62 62 SSE 17 28 30.08 1019 10 16.0934 0 0
7:58 am 07:58 Clear 45 7 35 1.4 68 68 ESE 12 19 30.08 1019 10 16.0934 0 0
8:58 am 08:58 Clear 44 6.8 35 1.8 71 71 ESE 8 13 30.07 1018 10 16.0934 0 0
9:58 am 09:58 Clear 44 6.6 36 2.2 74 74 S 14 22 30.06 1018 10 16.0934 0 0
10:58 am 10:58 Clear 43 5.9 37 2.8 81 81 SE 10 17 30.05 1018 10 16.0934 0 0
11:58 am 11:58 Mostly Clear 43 6 38 3.2 82 82 ESE 12 19 30.04 1017 10 16.0934 0 0
12:58 pm 12:58 Mostly Cloudy 43 6.2 40 4.4 88 88 S 14 22 30.06 1018 10 16.0934 0 0
1:58 pm 13:58 Cloudy 45 7.1 42 5.6 90 90 S 10 17 30.05 1018 10 16.0934 0 0
2:58 pm 14:58 Cloudy 47 8.3 43 6.2 87 87 S 18 30 30.03 1017 10 16.0934 0 0
3:59 pm 15:59 Cloudy 49 9.7 44 6.4 80 80 SSW 18 30 30.02 1017 10 16.0934 0 0
4:58 pm 16:58 Mostly Cloudy 54 12.3 44 6.7 69 69 S 22 35 29.97 1015 10 16.0934 0 0
5:58 pm 17:58 Partly Cloudy 58 14.5 45 7 61 61 S 18 30 29.94 1014 10 16.0934 0 0
6:58 pm 18:58 Sunny 62 16.7 45 7.2 54 54 S 15 24 29.88 1012 10 16.0934 0 0
7:58 pm 19:58 Sunny 65 18.5 45 7.4 49 49 SSE 18 30 29.83 1010 10 16.0934 0 0
8:58 pm 20:58 Sunny 69 20.6 46 7.7 44 44 S 18 30 29.78 1008 10 16.0934 0 0
9:58 pm 21:58 Sunny 69 20.5 49 9.2 48 48 SE 12 19 29.74 1007 10 16.0934 0 0
10:58 pm 22:58 Sunny 68 19.8 50 10 53 53 ESE 13 20 29.72 1007 10 16.0934 0 0
11:58 pm 23:58 Partly Cloudy 56 13.4 51 10.3 82 82 SE 17 28 29.73 1007 10 16.0934 0 0

Powered by AerisWeather